Location: Casone le Fosse
(44.6547°N, 12.1103°E)
Time: 12:07:18
(UTC+00:00)

NOSS 3-3 (A) - Pass Details

Date: 29 October 2020
Orbit: 826 x 1387 km, 63.4° (Epoch: 22 November)

Event Time Altitude Azimuth Distance (km) Brightness Sun altitude
Rises 18:03:29 0° 224° (SW) 3,410 7.5 -21.7°
Reaches altitude 10° 18:05:51 10° 227° (SW) 2,517 6.7 -22.1°
Maximum altitude 18:11:39 70° 311° (NW) 1,000 4.1 -23.2°
Enters shadow 18:16:11 21° 31° (NNE) 2,107 5.5 -24.0°
